Wind_Speed
41 40 40 40 40 42 43 43 43 43 44 44 44 45 45 44 44 44 43 45 49 51 50 48 47 44 43 45 46 46 47 47 48 46 45 45 47 51 56 57 56 56 56 55 53 51 49 48 48 49 50 52 54 56 56 56 57 59 61 64 64 64 64 67 70 73 74 73 70 69 67 63 58 50 43 38 34 35 39 44 48 50 51 55 60
42 41 41 42 43 45 45 45 45 45 46 45 45 46 46 44 44 46 48 50 52 52 51 49 48 45 45 46 48 49 49 49 47 46 46 47 50 54 57 59 58 57 56 55 54 53 52 50 50 51 53 55 56 56 57 57 58 61 64 65 65 64 65 67 71 74 74 73 71 70 69 68 61 52 45 41 39 38 39 43 48 53 55 55 58
43 42 43 44 47 48 47 46 46 47 49 48 47 48 49 49 48 48 49 50 50 50 49 48 48 47 47 48 50 51 50 49 47 47 49 49 51 55 59 60 60 58 57 57 56 55 53 52 52 54 55 57 58 57 58 58 60 64 66 65 65 66 68 70 72 72 73 73 71 70 70 69 63 54 46 42 41 41 41 42 46 53 57 58 58
44 44 45 47 49 50 49 48 48 49 50 50 51 51 50 49 48 48 49 49 48 49 47 45 46 47 48 50 51 51 51 50 48 49 51 50 52 57 61 61 61 61 60 59 57 55 55 55 55 56 57 58 58 57 57 59 62 65 66 66 68 70 71 71 71 71 71 72 72 71 70 68 62 54 48 43 42 44 43 43 45 50 56 59 60
46 47 49 50 51 52 52 51 51 52 53 54 54 51 47 47 49 51 51 50 49 49 46 45 46 48 49 50 50 51 51 51 52 53 53 52 55 60 62 62 62 62 61 59 58 57 57 57 57 57 57 57 56 57 59 61 64 66 67 69 72 73 73 72 71 71 71 71 73 72 70 64 58 54 50 45 44 45 45 44 44 48 54 58 60
49 50 52 53 53 53 54 54 54 56 57 57 55 51 49 51 54 54 54 53 53 54 53 53 54 54 54 53 53 54 54 56 57 55 52 53 59 62 63 63 63 62 61 60 60 59 58 59 59 58 58 58 59 61 63 64 66 68 70 73 74 73 73 72 72 71 71 71 72 71 67 61 57 55 52 50 48 47 46 45 45 48 51 56 60
51 52 54 55 55 55 55 55 57 60 60 59 58 55 53 55 55 54 54 54 55 57 58 59 60 60 59 59 58 58 59 59 59 57 56 59 63 64 64 64 63 62 62 62 61 60 60 61 61 61 62 64 65 66 67 68 70 71 72 73 73 73 73 73 72 72 72 72 71 68 63 59 57 56 55 54 53 52 49 47 47 48 50 54 59
54 55 56 57 57 57 56 56 58 61 63 62 61 58 56 55 55 54 53 53 53 55 57 58 59 59 59 59 59 59 59 60 60 60 62 64 64 64 63 63 63 63 63 63 63 63 63 64 65 66 68 70 70 70 71 72 73 72 72 72 73 73 73 73 73 73 73 73 70 65 60 58 58 58 57 57 56 55 53 50 48 50 51 53 57
56 57 57 58 58 58 58 58 58 60 62 63 61 59 57 55 55 55 54 54 55 56 57 58 59 59 59 59 60 60 61 62 62 63 64 63 62 62 62 62 63 64 64 65 66 66 67 69 71 72 73 73 73 73 74 74 73 72 74 74 74 73 73 73 74 74 74 72 68 63 60 59 60 59 60 60 58 57 57 54 50 50 52 54 56
58 59 59 59 59 59 59 60 59 58 60 61 60 58 56 54 54 54 55 56 58 59 60 61 61 61 60 61 62 63 64 65 65 65 63 61 60 60 61 63 64 66 67 69 70 72 73 74 75 75 75 74 75 75 75 73 73 75 78 77 75 74 74 74 73 74 73 69 65 62 61 61 61 61 61 61 60 59 58 56 52 51 52 54 56
60 60 60 61 61 61 60 60 59 57 57 58 59 57 56 55 55 54 55 57 59 60 62 63 61 59 60 62 64 65 66 67 67 65 63 61 61 62 64 67 69 71 72 74 75 76 76 76 75 74 75 75 76 77 76 75 76 78 78 77 75 74 73 73 73 72 68 64 63 64 63 62 62 62 62 61 61 61 59 56 52 51 52 54 55
62 62 62 62 62 62 61 60 59 57 56 56 57 57 56 56 56 56 58 59 60 62 64 64 62 61 63 65 66 67 68 68 68 67 65 63 63 64 66 68 71 74 75 76 77 76 76 75 75 75 76 76 77 77 77 77 77 77 76 75 75 74 73 73 72 69 65 63 64 66 66 64 63 63 62 61 62 62 60 57 52 49 52 54 54
63 64 64 64 63 63 62 60 58 57 55 55 56 56 56 56 57 58 59 60 63 64 65 66 65 65 66 67 68 69 70 69 69 67 66 64 64 65 67 70 72 73 74 75 74 74 74 74 74 76 77 77 78 79 78 76 75 74 73 74 73 73 74 73 69 67 67 67 67 68 67 66 64 63 62 61 62 61 59 57 52 49 50 52 53
65 65 64 64 64 63 62 60 58 56 55 55 56 56 57 58 59 60 61 63 64 62 64 67 63 61 64 66 67 69 69 69 69 69 69 68 68 70 71 71 72 72 72 72 72 73 73 73 75 77 78 79 79 79 77 75 72 72 72 73 72 72 73 70 68 69 70 69 68 69 69 67 65 64 63 62 61 60 57 55 52 49 48 49 51
67 66 65 65 64 63 62 60 58 56 56 56 57 57 59 60 61 62 63 63 61 59 63 65 59 59 64 66 67 69 69 68 69 69 70 71 71 72 72 71 70 70 70 71 72 73 73 75 77 79 80 81 80 79 78 76 73 73 74 76 76 74 72 70 70 72 72 71 71 71 70 68 65 64 63 62 60 58 55 53 50 47 46 47 50
69 68 66 65 64 63 62 60 58 57 57 58 58 60 61 62 64 65 64 64 63 60 60 61 59 61 65 66 67 68 67 67 68 68 69 70 71 71 70 68 68 68 70 72 73 74 75 77 80 80 82 83 83 82 80 78 76 76 77 78 77 74 72 72 73 74 74 73 73 72 71 69 66 63 62 61 59 56 53 51 49 46 45 46 48
71 70 68 66 64 63 62 60 59 58 58 59 61 62 63 64 66 68 67 68 67 60 56 58 61 63 66 67 67 67 67 68 68 68 69 70 69 68 67 66 68 70 71 73 75 76 78 79 81 82 84 85 84 84 82 79 78 78 78 76 74 73 74 74 74 75 76 76 75 73 71 68 65 63 61 60 57 53 50 49 47 44 43 45 47
72 71 69 66 64 63 62 61 60 59 60 61 62 64 65 66 68 70 70 70 69 64 61 62 63 65 68 68 66 67 68 68 67 67 68 68 67 66 66 66 68 70 72 74 77 79 80 81 83 85 86 87 86 83 81 80 80 79 76 74 73 74 75 75 75 76 78 78 77 75 72 67 64 61 59 57 55 51 48 46 45 44 42 43 46
72 71 69 67 65 65 64 63 62 61 62 64 65 66 68 69 70 72 73 72 69 67 67 67 66 67 68 65 65 67 66 65 65 66 67 68 68 66 66 68 70 72 75 78 79 80 81 83 86 88 88 88 85 83 82 82 80 78 75 74 74 75 77 76 77 78 79 79 78 75 71 67 63 60 58 55 53 49 46 44 43 43 41 41 43
72 70 69 67 67 66 66 65 65 64 65 66 67 69 70 71 72 73 73 72 70 70 69 67 66 65 63 63 64 62 59 60 63 65 67 69 69 68 68 71 75 77 79 80 80 82 85 87 90 91 91 88 85 84 83 81 79 77 76 76 76 77 78 79 79 81 81 79 77 74 70 66 62 59 57 54 51 47 44 42 41 41 40 40 41
71 70 69 68 68 68 68 68 67 67 67 68 70 71 72 73 73 72 71 71 70 69 66 63 61 60 59 59 56 53 53 59 63 66 69 71 71 72 73 76 79 81 82 82 84 87 89 91 93 93 91 88 86 84 82 79 78 78 78 78 78 80 81 82 83 83 81 79 76 72 69 66 61 57 54 51 48 45 43 41 40 39 38 39 40
71 69 69 69 69 69 69 69 69 69 69 70 71 72 73 73 72 71 70 70 70 68 65 61 58 57 55 53 51 52 56 62 65 68 71 72 73 75 77 80 83 84 84 86 89 91 93 94 94 93 90 88 86 83 80 78 79 79 79 80 81 83 84 85 85 84 81 78 74 71 68 65 60 56 52 49 45 42 41 40 39 37 36 37 39
71 70 70 70 70 70 71 71 71 71 70 71 72 73 72 72 72 71 71 71 71 70 67 62 58 56 55 55 56 57 60 63 65 68 71 73 74 76 80 84 86 87 88 91 93 95 95 96 95 92 90 87 83 80 79 80 80 80 82 83 85 86 87 87 86 83 80 77 73 70 67 63 59 54 49 46 42 40 39 39 38 35 34 35 37
72 72 72 72 72 72 72 72 72 72 72 72 72 73 72 72 72 73 72 72 71 70 68 64 61 61 61 60 58 59 61 65 68 70 72 73 75 78 83 86 87 89 92 94 95 96 96 95 94 92 89 85 82 81 81 81 82 83 85 87 88 89 89 87 85 82 78 75 72 68 64 60 56 51 47 43 40 38 38 38 37 34 33 34 36
73 74 74 74 74 73 73 73 73 74 74 73 73 74 73 73 74 74 74 73 72 71 68 64 61 61 59 56 57 61 66 69 70 72 74 75 78 82 86 88 90 92 93 94 95 96 95 94 93 90 86 84 82 82 83 84 85 86 88 89 90 90 88 85 82 79 76 73 69 65 61 56 52 48 44 41 38 36 36 37 35 32 32 33 34
75 75 75 75 74 74 74 75 75 75 75 75 75 74 74 74 76 76 75 74 73 70 66 62 60 59 58 58 62 67 70 70 71 73 76 80 84 87 88 89 90 92 93 93 94 94 94 94 91 87 85 84 84 85 86 87 88 89 91 91 90 88 85 82 79 76 73 69 65 60 56 52 48 44 41 38 36 34 34 35 34 31 31 31 32
76 76 76 75 75 75 75 75 76 76 76 76 75 75 74 75 77 77 76 74 71 67 64 61 60 61 62 64 66 68 70 71 74 78 81 85 88 89 89 89 91 93 93 94 94 94 93 90 87 85 84 85 86 87 88 90 91 92 92 91 88 85 82 79 76 73 68 64 60 55 51 48 44 41 38 35 33 33 33 33 32 30 29 29 30
76 76 77 76 76 76 76 76 77 77 77 78 77 76 75 76 76 75 72 68 64 61 61 62 64 65 66 67 68 70 73 77 81 84 86 88 89 89 90 92 94 94 94 94 93 92 89 86 85 85 86 87 88 89 91 93 94 94 92 89 85 82 80 76 72 68 63 59 55 51 47 44 40 38 35 32 31 31 31 32 31 29 28 27 27
77 77 78 78 77 77 77 78 79 79 79 79 78 78 77 76 74 71 66 62 60 60 62 65 67 68 68 69 73 78 81 84 86 87 87 88 88 90 92 94 95 94 94 94 92 88 86 85 85 87 88 90 91 92 94 95 94 92 89 86 82 80 76 72 68 63 58 54 50 46 44 40 37 35 32 30 29 29 30 30 29 28 27 26 26
78 78 78 78 79 79 79 80 81 80 80 79 79 77 74 69 64 60 57 57 60 63 65 67 70 71 73 78 83 86 86 86 86 86 87 88 91 93 94 94 94 93 93 91 88 86 84 85 87 89 91 92 93 94 95 95 93 90 86 83 80 76 71 67 63 58 53 49 46 43 40 37 34 32 30 29 28 28 29 29 28 27 25 24 24
79 79 79 79 80 80 80 81 82 81 81 80 78 75 69 63 60 60 60 62 66 69 72 75 78 81 83 86 87 87 86 85 86 87 88 91 93 93 94 94 93 92 89 87 85 85 86 87 90 92 93 94 96 96 96 93 90 86 83 79 76 71 66 62 57 53 48 45 42 40 37 35 32 29 28 27 27 27 28 28 27 25 24 24 23
79 79 80 81 81 81 81 81 81 81 81 80 78 75 70 64 61 62 66 71 75 78 81 83 85 86 87 86 86 86 86 86 87 89 90 92 92 93 93 92 91 88 85 84 84 86 87 90 92 94 95 97 97 96 94 90 86 83 79 75 71 66 62 58 53 49 45 42 40 37 35 32 29 27 26 26 26 27 27 27 26 24 24 23 23
79 79 80 81 81 81 81 81 81 82 81 80 79 76 70 64 61 64 70 76 81 83 85 85 84 84 85 85 85 86 87 87 89 90 90 91 91 91 91 89 87 84 83 84 86 88 90 92 94 95 97 98 97 94 91 87 83 79 74 70 66 62 58 54 50 46 43 40 38 35 32 30 27 25 24 25 26 26 27 26 25 24 24 24 24
79 80 80 80 81 81 82 81 81 80 79 78 77 75 72 71 71 74 77 80 82 83 83 83 83 83 84 85 86 86 87 88 89 89 90 90 90 88 87 85 84 83 84 86 88 90 92 94 96 97 98 97 94 90 87 82 78 73 68 65 62 58 54 51 48 44 41 39 36 33 31 28 26 25 24 24 25 26 27 26 25 25 25 24 24
79 79 79 80 80 79 78 77 76 76 76 76 77 77 76 77 77 78 78 79 79 79 80 82 84 84 85 85 85 86 87 88 88 88 88 87 86 84 84 83 84 85 87 88 90 92 94 96 97 98 96 93 89 85 81 77 72 67 63 60 57 54 51 48 45 41 39 37 34 31 29 28 26 24 23 24 25 27 27 26 25 26 26 25 24
79 79 78 77 75 74 73 73 74 75 76 77 78 78 78 78 78 78 79 79 80 81 83 84 85 85 85 86 86 86 87 87 87 86 84 83 82 83 83 85 86 87 89 91 92 94 95 96 96 95 92 88 84 79 75 70 66 62 59 56 54 51 48 44 41 39 37 34 32 30 29 27 26 24 23 24 26 27 27 27 27 28 28 27 25
78 76 75 73 72 72 73 74 75 76 77 77 77 78 78 78 79 79 79 80 82 83 84 85 85 85 85 86 85 85 85 84 82 81 80 81 82 84 86 87 89 90 91 93 94 95 96 95 94 90 86 81 77 73 68 64 60 57 55 52 50 47 43 40 38 36 34 32 30 29 28 27 26 24 24 24 26 28 28 28 29 30 30 28 26
74 72 72 73 73 74 74 75 76 77 78 78 77 78 79 79 79 79 80 81 82 83 84 84 84 84 84 83 83 81 80 80 79 80 81 83 85 87 88 90 91 92 93 94 95 95 94 91 88 83 79 74 70 66 62 59 56 53 51 48 45 42 39 37 35 33 32 31 29 27 27 27 26 24 24 25 27 29 29 29 31 32 31 30 28
70 71 73 74 75 76 76 77 78 78 78 78 78 78 78 79 79 80 81 81 82 82 82 82 82 81 80 79 79 79 79 79 80 82 84 86 87 89 90 91 93 94 94 94 93 92 89 85 80 75 71 68 64 61 57 54 52 49 46 43 41 38 36 34 32 31 30 29 28 27 26 26 25 25 24 25 28 30 30 31 33 33 33 32 29
72 74 75 77 78 79 78 78 78 78 78 78 78 79 79 80 80 81 80 80 80 79 79 78 78 78 77 78 79 80 81 82 83 85 87 88 90 91 92 93 94 94 93 92 89 85 81 76 72 68 65 63 60 57 53 50 48 45 42 39 37 35 33 32 31 29 29 28 28 26 25 25 25 25 25 26 29 31 32 33 35 35 35 33 30
75 77 78 80 80 80 79 78 78 78 78 79 79 80 80 79 79 78 77 77 77 77 77 77 77 78 79 80 81 83 84 85 86 88 90 91 92 93 94 94 93 91 89 85 81 76 72 68 65 63 61 58 55 52 49 46 44 41 38 35 33 32 31 31 30 29 28 28 27 26 25 25 25 25 25 26 30 32 33 35 37 37 37 35 33
79 81 81 81 81 80 79 79 79 79 79 79 79 79 78 77 76 76 76 76 77 77 78 78 79 80 82 83 85 86 87 88 90 91 92 93 94 94 93 92 89 86 82 77 72 67 64 62 59 57 55 53 50 47 44 42 40 37 35 33 31 30 30 30 29 28 27 27 27 26 25 24 24 25 25 27 30 33 35 36 39 39 39 38 35
83 83 81 80 79 79 79 79 79 79 78 77 77 76 76 76 76 76 76 77 77 78 79 81 82 83 85 86 88 89 90 91 92 93 94 94 93 92 90 87 83 78 73 68 64 61 59 56 54 51 49 48 46 43 40 38 36 34 32 30 29 29 29 28 28 28 27 26 25 25 24 24 24 25 26 28 31 34 36 38 40 42 41 40 37
84 82 80 79 78 79 79 79 78 77 76 76 76 76 77 77 77 78 78 79 80 81 82 84 85 86 88 89 90 91 92 92 93 93 92 91 89 86 83 79 74 69 65 61 58 56 54 51 47 45 44 43 42 40 38 35 33 32 30 29 28 28 27 27 27 26 26 25 25 24 23 23 24 25 26 28 31 35 38 40 42 44 44 42 39
82 80 79 78 78 78 78 77 77 76 76 76 77 77 78 79 79 80 81 82 83 84 86 87 88 89 90 91 92 92 92 92 91 90 88 85 82 78 75 71 66 62 59 55 53 51 49 45 42 41 41 40 39 38 36 34 31 30 28 27 27 27 27 26 26 25 24 24 24 23 23 22 23 24 26 28 31 35 39 41 44 45 46 45 42
80 80 79 79 78 78 77 77 77 78 78 78 79 79 80 81 82 83 84 86 87 88 89 89 90 91 91 91 91 91 90 88 86 83 80 77 73 70 67 64 60 57 54 50 48 46 44 41 39 38 38 38 37 36 35 33 31 29 27 27 26 26 26 25 25 24 23 23 23 23 22 22 22 23 25 28 30 34 38 42 45 46 48 47 45
79 79 79 79 78 78 78 79 79 79 79 80 81 82 83 84 85 86 87 89 89 90 90 90 91 90 90 89 88 86 84 81 78 74 71 68 66 63 61 58 55 52 49 45 43 42 41 39 38 37 37 36 36 35 34 32 31 29 27 26 26 25 25 24 24 23 22 22 23 23 22 21 21 22 24 26 29 33 38 42 45 47 49 49 48
79 79 79 79 79 79 79 80 80 81 82 83 84 85 86 87 88 89 89 90 90 90 90 89 89 88 86 84 82 79 76 72 69 66 64 61 59 57 55 52 49 46 44 42 40 40 39 38 37 37 36 35 34 33 32 31 30 28 27 26 26 25 24 23 23 22 21 21 22 22 21 20 20 21 22 25 28 32 36 41 45 47 49 50 50
79 80 80 80 80 80 81 82 83 83 84 85 86 87 88 88 89 89 89 89 89 88 87 86 84 82 79 77 74 70 67 64 61 59 57 55 54 51 49 46 44 42 41 41 40 39 38 37 37 36 35 34 33 32 31 30 29 28 27 26 26 25 24 23 22 21 21 21 21 21 21 20 20 20 21 23 26 30 34 40 44 47 49 50 51
80 81 81 81 82 83 83 84 85 86 87 88 88 88 89 89 88 88 88 87 86 84 83 81 78 75 72 68 66 63 60 58 56 53 51 49 48 46 44 42 42 41 41 40 40 39 38 37 36 35 34 33 32 31 30 29 28 27 27 26 25 24 23 22 21 21 21 22 21 21 20 20 19 19 20 21 24 28 32 37 43 47 49 50 51
82 82 83 83 84 85 86 87 87 88 88 88 88 88 88 88 87 86 85 83 81 78 76 73 70 67 64 61 59 57 54 52 49 47 45 44 43 42 42 41 41 40 40 40 39 38 37 36 35 34 33 32 31 30 30 29 28 28 27 27 26 24 22 21 21 21 22 22 22 21 20 19 19 18 18 19 22 26 30 34 40 45 48 50 51
Wind_Direction
303 305 306 307 306 303 302 302 303 307 310 312 314 314 315 316 315 310 305 304 304 304 303 301 301 302 300 300 301 302 304 303 302 303 304 302 300 298 300 304 308 309 309 310 310 310 309 308 307 306 305 306 308 310 310 310 308 308 309 312 313 312 312 312 313 314 316 317 318 318 319 319 317 311 304 299 295 286 273 260 252 249 247 242 237
302 303 304 304 302 300 299 301 306 308 309 310 312 312 311 310 308 305 302 301 301 301 300 299 300 300 298 297 298 300 303 303 301 302 302 300 298 297 300 304 305 306 307 308 308 308 308 307 306 305 306 308 310 311 310 308 307 307 309 311 311 310 310 310 311 313 314 315 317 317 317 317 315 310 301 295 293 289 280 268 257 251 248 246 241
300 301 301 300 298 297 299 303 307 308 308 309 309 308 308 308 307 306 304 303 303 304 304 303 303 302 300 299 299 301 303 303 302 303 303 301 297 296 300 303 304 305 306 306 306 306 306 306 306 306 308 310 311 311 309 307 306 307 309 310 309 309 308 309 310 312 313 314 315 315 316 316 314 309 301 293 290 288 283 274 264 255 250 247 244
299 299 298 297 296 298 300 303 305 306 306 306 306 308 310 310 309 308 307 306 307 307 308 307 305 304 302 302 301 301 302 302 302 304 304 300 295 296 301 304 304 304 304 305 305 304 304 306 307 309 310 311 312 311 308 306 305 307 308 308 307 307 307 308 310 312 313 313 313 314 315 314 312 308 302 294 289 286 282 277 269 261 253 249 246
297 297 296 295 296 299 301 303 305 305 304 305 307 311 312 309 308 308 307 306 307 307 307 307 306 304 302 301 300 299 299 299 301 304 304 299 295 298 302 304 303 303 302 303 303 303 304 306 309 311 312 312 311 308 306 305 305 307 307 306 306 306 307 309 311 312 312 312 312 313 314 313 311 309 305 298 291 286 282 277 271 264 258 252 248
295 295 294 295 296 298 300 303 305 304 304 306 308 309 307 304 305 305 303 303 303 303 304 304 303 301 300 299 298 296 296 296 299 303 303 298 297 300 302 302 301 300 300 301 301 302 304 306 309 311 312 310 308 307 306 305 305 305 305 304 305 306 308 310 311 311 311 311 312 312 312 311 309 308 306 303 297 291 284 279 273 266 260 255 251
293 293 293 294 296 298 300 303 304 303 304 306 306 306 305 304 304 304 302 301 300 300 300 300 300 300 299 298 296 295 295 297 298 300 299 297 298 300 301 300 299 298 298 299 300 301 303 306 308 310 310 309 308 307 307 306 305 304 304 305 306 307 309 310 310 310 311 311 311 311 311 310 308 308 307 304 300 295 289 282 276 269 262 256 253
291 291 292 293 295 297 299 301 302 303 304 305 305 306 307 307 305 304 303 302 300 299 299 300 301 302 301 300 299 299 299 299 299 298 297 298 299 300 300 299 298 297 298 298 298 300 302 305 307 308 309 309 309 308 307 306 305 305 305 306 308 309 309 310 310 310 310 311 311 311 309 308 308 308 306 303 300 296 292 286 278 272 266 259 254
288 289 291 292 294 297 298 299 300 301 302 303 305 306 307 306 305 304 304 303 303 303 303 304 304 303 303 302 301 301 300 300 300 300 301 302 302 302 300 299 297 296 296 297 297 299 301 303 305 307 308 309 309 308 307 307 306 305 306 308 309 309 309 309 310 310 310 311 311 309 308 308 307 307 305 302 299 296 292 288 281 274 267 262 257
287 288 290 292 294 296 297 298 298 299 300 302 304 305 304 303 302 303 304 305 305 305 304 305 304 303 302 301 301 300 300 301 301 301 302 301 300 299 298 296 295 295 295 296 297 299 301 303 305 307 309 310 309 309 308 307 305 305 307 308 309 309 309 309 309 310 310 310 309 308 307 307 307 305 303 300 298 295 291 287 283 275 267 262 258
286 288 290 291 293 294 295 296 297 298 299 300 302 301 301 301 302 303 304 304 304 304 304 305 304 301 300 301 300 300 300 299 299 298 297 296 295 295 294 294 294 294 295 297 298 300 302 304 306 308 309 310 309 308 308 307 305 305 306 307 308 309 309 309 309 310 310 308 307 307 307 307 306 304 301 299 297 294 291 287 282 276 268 262 258
286 288 289 291 292 293 294 295 296 297 298 298 298 298 299 301 302 303 304 304 304 304 304 305 303 299 299 299 299 298 298 297 297 296 295 294 294 294 294 294 294 295 296 297 299 301 303 305 306 307 308 308 308 308 308 307 306 306 306 307 308 309 309 309 309 309 308 307 306 307 307 306 305 303 301 299 297 294 291 288 282 275 267 262 258
285 287 288 290 291 292 294 295 296 296 296 296 295 296 298 300 301 302 303 303 304 304 303 304 303 300 298 298 297 297 297 297 297 297 296 296 296 296 296 296 297 297 298 299 300 301 303 304 305 305 306 306 307 308 308 308 307 306 307 308 309 309 309 308 308 308 307 307 307 307 307 306 305 303 301 299 296 293 291 288 283 274 266 261 257
284 286 288 290 291 292 294 294 295 295 294 294 294 295 297 298 299 300 301 303 305 303 303 305 302 296 296 297 297 297 297 297 297 296 296 297 298 299 299 299 299 299 299 300 301 303 303 303 303 304 305 306 308 309 309 309 308 308 308 308 308 308 308 308 307 308 307 308 308 307 307 306 305 303 301 299 296 293 291 288 282 273 265 259 255
285 286 288 290 291 292 293 294 294 294 294 294 294 294 296 297 298 300 302 304 305 301 301 303 298 292 295 298 297 297 296 295 295 295 295 296 297 297 298 297 298 298 299 301 302 303 303 302 303 305 307 309 310 311 311 311 310 309 309 309 308 308 308 308 308 308 308 308 308 307 307 306 305 304 302 299 296 293 291 287 281 273 265 258 253
287 288 289 290 291 292 293 293 294 294 294 294 294 295 297 298 299 301 302 303 302 299 299 301 296 293 296 298 297 297 295 294 294 294 295 296 295 295 295 295 296 297 300 302 302 302 303 304 305 307 309 311 312 312 312 312 311 310 310 309 309 309 309 308 309 309 308 308 308 307 307 307 306 305 302 299 296 294 291 286 279 272 264 257 252
288 289 290 291 291 292 292 293 293 294 294 294 295 296 298 299 300 301 301 302 302 300 298 296 293 293 297 298 297 296 294 293 294 294 294 294 293 293 293 294 295 298 300 302 302 303 305 306 307 308 310 312 312 312 312 311 311 311 310 309 309 309 309 309 310 309 309 309 309 308 308 307 306 305 302 299 297 294 291 285 278 271 263 257 252
287 288 289 291 291 292 292 292 292 293 293 294 296 297 298 299 300 301 301 301 301 299 297 296 292 294 297 298 296 295 294 294 295 294 293 293 292 292 293 295 297 300 301 302 303 304 306 307 308 310 311 312 312 312 311 311 311 310 309 309 309 309 309 309 310 310 310 310 310 309 308 308 306 304 302 299 297 294 290 285 278 271 263 256 252
286 288 289 291 291 291 291 291 292 293 294 296 297 298 298 299 300 300 301 301 301 299 299 299 298 298 299 298 297 295 294 294 294 294 293 292 292 292 293 296 300 301 302 304 304 306 307 309 310 312 313 313 312 312 312 311 311 310 309 310 310 310 310 310 311 311 310 310 310 309 309 308 306 305 303 300 298 294 289 284 277 271 265 257 251
286 287 289 290 291 290 291 291 292 294 295 296 297 297 298 299 300 300 301 301 301 301 301 302 302 300 299 297 296 293 292 293 294 293 293 293 292 291 293 298 301 303 304 305 306 307 309 311 312 313 313 313 312 312 312 311 310 310 310 310 311 311 311 312 312 311 311 310 310 309 308 307 306 305 303 301 298 294 289 283 276 271 266 260 253
285 287 288 289 289 289 290 291 293 294 295 295 295 296 297 298 299 299 300 301 301 301 302 303 301 297 295 295 292 288 289 293 294 294 295 295 293 292 295 299 302 304 305 306 307 309 311 312 313 313 312 312 312 311 311 310 309 310 310 311 312 312 313 313 312 311 311 310 310 309 308 307 306 305 303 301 297 293 287 282 276 270 265 261 255
285 285 286 287 287 288 289 291 292 293 293 294 295 296 298 298 298 299 300 301 301 301 301 300 296 293 293 292 286 284 289 294 295 296 297 297 297 298 299 302 303 305 306 307 309 310 311 311 311 311 311 311 311 310 310 309 309 310 311 313 313 313 313 313 312 311 310 310 309 309 307 306 305 305 303 299 296 291 286 281 275 270 264 260 256
283 284 284 285 286 288 289 290 291 291 292 293 295 296 297 298 298 299 299 300 300 299 299 297 293 290 289 287 283 284 289 293 295 296 297 299 301 302 303 304 305 306 307 308 309 309 310 310 310 311 310 310 310 309 309 309 310 312 313 314 314 314 313 312 311 311 310 309 309 308 307 306 305 304 301 298 294 289 284 279 274 269 263 257 254
281 282 283 284 286 287 288 289 290 291 292 294 295 296 297 297 298 299 299 299 299 297 297 296 292 289 287 285 282 284 287 289 291 294 296 298 300 302 303 304 305 305 306 307 308 308 308 309 310 310 310 309 309 309 309 310 312 313 314 314 314 313 312 311 310 310 309 308 308 307 306 304 303 302 299 296 292 287 281 277 273 267 261 256 253
280 281 283 284 286 287 287 288 290 291 293 294 295 296 297 297 298 298 298 298 298 297 297 296 294 291 288 284 281 283 285 288 290 292 294 296 298 301 303 303 303 304 305 306 306 307 307 308 309 309 309 309 309 309 311 312 313 313 313 313 313 312 311 310 309 309 308 307 307 306 304 302 301 299 296 292 288 284 278 274 270 266 260 256 252
281 282 284 285 286 287 288 289 291 292 294 295 296 296 297 297 297 298 298 298 298 297 295 294 293 292 288 283 282 284 286 289 291 294 295 297 299 301 301 302 303 304 304 305 305 306 307 308 308 308 308 309 309 311 312 312 313 313 313 313 312 311 310 309 309 308 307 306 305 304 302 300 299 296 293 289 285 280 275 271 267 264 259 255 252
282 283 284 286 287 288 289 290 292 293 294 295 295 295 296 296 297 297 298 298 296 294 291 290 290 289 287 286 286 287 288 290 293 294 296 297 299 300 301 302 303 304 304 304 305 306 307 307 308 308 308 309 310 311 312 312 312 312 312 312 311 310 309 309 308 307 307 305 304 302 300 298 296 293 289 285 280 276 272 268 265 261 257 254 250
282 283 284 286 287 288 289 291 292 293 294 294 294 295 295 295 296 298 298 297 294 290 288 287 287 287 286 286 287 287 289 291 293 294 296 297 298 300 301 302 303 303 304 304 305 306 307 307 308 308 309 310 310 311 311 312 312 312 312 311 310 310 309 309 308 307 306 304 302 300 298 296 293 290 286 281 276 272 268 265 262 259 256 251 246
282 283 284 285 286 288 289 290 291 292 293 293 293 294 295 298 299 300 299 296 292 288 285 285 286 285 284 285 287 289 291 293 294 295 296 297 298 300 300 301 302 302 303 304 305 306 307 307 308 308 309 310 310 311 311 311 312 312 311 311 310 309 309 308 307 306 305 303 300 298 295 292 289 287 283 278 272 267 264 261 259 257 254 248 241
281 282 284 285 286 287 288 289 290 291 291 291 292 294 297 299 300 298 295 291 288 286 284 285 285 285 285 287 290 292 293 294 295 296 297 297 298 299 299 300 301 302 303 305 306 306 306 307 308 308 309 309 310 310 311 311 311 311 311 310 309 309 308 307 306 305 303 301 298 295 293 290 287 283 280 274 268 263 259 257 255 252 249 244 238
280 282 283 284 285 286 287 288 289 289 289 290 290 291 292 290 287 285 283 281 280 281 283 285 286 287 289 291 292 293 294 295 295 296 296 297 297 298 299 300 301 303 304 305 306 306 306 307 307 308 309 309 310 310 311 311 311 310 310 309 309 308 307 306 305 304 302 300 297 294 292 289 285 280 275 270 263 258 254 252 249 246 242 237 233
280 281 282 282 284 285 286 286 286 287 287 287 287 288 288 286 282 278 276 276 278 281 284 286 288 290 291 292 293 293 294 294 295 295 295 296 297 298 299 301 302 304 305 305 305 305 306 306 307 308 308 309 310 310 310 310 310 309 309 308 307 307 306 305 304 303 301 298 296 293 291 288 283 277 271 265 259 253 249 246 243 240 234 231 229
279 280 281 282 283 284 284 284 285 285 285 286 286 287 287 284 280 278 278 280 284 286 287 289 290 291 292 292 292 293 293 293 294 295 296 297 298 299 300 302 303 304 305 305 305 305 306 307 307 308 308 309 309 309 309 309 309 308 308 307 306 305 305 304 303 303 300 297 295 292 290 287 282 275 267 260 254 248 244 241 237 232 227 226 227
278 279 280 281 282 283 283 284 285 285 286 286 286 287 286 284 282 283 284 286 287 288 289 290 291 291 292 292 292 293 293 294 295 296 297 298 299 300 301 303 303 304 304 304 305 305 306 306 307 308 308 308 308 308 308 308 307 307 306 305 304 304 303 302 302 301 299 296 294 292 289 285 280 272 264 256 249 243 239 236 230 224 220 223 225
278 279 280 281 282 283 284 285 285 286 286 287 287 287 287 287 287 288 288 289 289 289 290 291 292 292 293 293 293 293 294 295 296 297 298 299 300 301 302 302 303 303 304 304 305 305 306 306 307 307 307 307 307 307 306 306 306 306 305 304 303 302 302 301 301 300 297 295 293 291 288 283 277 269 260 251 244 238 234 230 223 217 216 220 222
280 280 281 281 282 283 285 285 286 286 287 287 288 289 290 290 290 291 291 290 291 291 291 292 293 293 293 294 294 294 294 295 297 298 299 300 301 301 302 302 303 303 304 304 305 305 306 306 306 307 307 307 306 305 305 305 305 305 304 303 302 301 300 300 300 298 295 293 291 289 286 280 273 265 255 246 239 234 230 224 217 211 213 218 219
280 280 280 281 283 284 286 287 287 288 288 289 290 291 291 291 291 291 291 291 291 292 292 292 293 293 293 294 294 294 295 296 298 299 300 300 300 301 301 302 303 303 304 304 305 305 306 306 306 306 306 305 305 304 304 304 304 303 303 302 300 299 299 299 297 295 292 291 289 286 282 277 269 261 251 242 235 230 226 219 212 208 211 217 217
279 281 282 283 285 286 287 288 289 290 290 290 290 291 291 291 291 291 291 291 291 292 292 292 292 293 293 294 294 295 296 298 299 299 300 300 300 301 301 302 303 303 304 305 305 305 306 305 305 305 304 303 303 303 303 304 303 302 301 300 298 298 298 297 294 292 290 289 288 284 278 273 266 258 249 238 230 227 223 215 208 206 210 215 216
281 284 285 286 287 288 289 290 290 290 290 291 291 291 291 291 291 291 291 291 291 291 291 292 292 293 294 295 296 297 298 298 299 299 299 300 300 301 302 302 303 303 304 304 305 305 305 305 304 303 303 302 302 303 303 302 301 300 299 297 296 296 296 294 292 291 290 289 287 282 277 271 263 255 246 235 227 224 220 212 207 206 208 213 215
285 288 289 290 290 290 291 291 291 291 291 291 291 292 292 291 291 291 291 291 291 291 292 293 294 295 296 296 297 298 298 298 299 299 300 300 301 301 302 302 303 303 304 304 304 304 304 304 303 302 302 302 302 302 302 301 300 298 297 296 295 295 295 293 292 292 290 288 287 283 276 269 261 253 244 233 226 222 217 210 206 205 207 211 213
289 291 291 291 291 291 291 291 291 291 292 292 292 292 291 291 291 291 291 292 293 293 294 295 296 297 297 297 297 298 298 299 300 300 300 301 301 302 302 302 302 303 303 304 304 304 303 302 302 302 302 301 301 301 301 299 298 297 296 295 295 294 294 294 293 291 290 288 287 283 276 269 261 252 243 233 225 221 216 209 205 204 206 209 211
291 291 291 291 291 291 292 292 291 291 291 291 291 291 290 290 291 292 293 294 294 295 296 296 297 297 297 298 298 299 299 300 300 300 300 301 301 301 301 302 302 303 303 303 303 302 301 301 300 300 299 299 299 300 299 298 298 297 295 295 294 294 293 292 291 290 289 287 286 284 277 270 261 252 243 234 225 221 216 209 204 203 205 208 210
291 291 291 291 291 291 291 291 291 291 291 290 290 291 291 292 292 293 294 294 295 295 296 296 297 297 298 298 299 299 299 299 299 299 300 300 300 300 301 301 302 302 302 302 302 300 299 299 298 298 297 297 298 298 297 297 296 295 294 294 293 292 291 290 289 288 288 287 286 284 279 271 262 253 244 234 226 221 216 210 205 203 204 207 209
291 291 291 290 290 290 290 290 290 291 291 291 291 292 292 293 294 294 295 295 296 296 296 297 297 297 298 298 298 298 298 299 299 299 299 299 300 300 300 301 301 302 302 301 300 298 297 296 296 296 296 296 297 297 296 296 295 294 293 292 290 289 289 288 287 287 287 287 286 285 279 272 264 254 245 236 228 222 217 212 206 204 204 206 208
290 289 289 289 289 290 290 290 291 291 291 292 292 293 293 294 295 295 296 296 296 296 297 297 297 297 297 297 297 298 298 298 298 298 299 299 299 299 299 300 301 301 301 300 298 296 295 295 295 295 295 295 296 296 296 296 295 294 292 290 288 287 287 286 286 286 286 286 287 285 280 273 265 256 247 238 230 223 219 214 209 205 204 205 207
288 288 289 289 290 290 290 291 291 292 293 293 294 294 295 295 296 296 296 296 296 296 297 297 297 297 297 297 297 297 298 298 298 298 298 298 298 299 299 300 300 300 299 298 296 294 294 295 295 295 295 295 296 296 297 296 296 294 292 290 287 286 285 285 285 286 286 286 286 285 282 276 268 258 249 241 233 226 220 216 212 207 204 204 206
287 288 288 289 289 290 290 291 292 293 293 294 294 295 295 295 296 296 296 296 296 296 296 296 296 296 296 297 297 297 297 297 297 297 298 298 298 298 298 298 298 298 297 296 295 294 295 296 296 295 295 296 296 296 296 296 295 294 292 289 287 285 284 284 284 285 285 285 284 283 282 278 271 262 251 243 236 229 222 218 215 211 206 204 206
286 287 287 288 289 290 290 291 292 293 293 294 294 295 295 295 295 296 296 296 296 296 296 296 296 296 296 296 296 296 297 297 297 297 297 297 297 297 297 297 297 297 296 295 295 295 295 296 296 296 296 296 295 295 295 294 294 292 290 288 286 284 283 283 283 283 283 282 281 281 280 278 273 265 254 244 237 231 225 220 217 214 209 206 206
286 286 287 288 289 290 291 292 293 293 294 294 295 295 295 295 295 295 295 296 296 296 296 296 296 296 296 296 296 296 297 296 296 296 296 295 295 295 296 296 297 296 296 296 296 296 297 297 297 296 296 295 294 294 294 293 292 290 288 286 284 282 281 281 281 281 281 279 278 277 277 276 273 267 257 246 238 233 228 222 219 217 213 209 208
286 287 288 289 290 291 292 293 293 294 294 294 295 295 295 295 295 296 296 296 296 296 296 296 296 296 296 296 296 296 296 295 295 294 294 294 294 295 296 296 297 297 297 297 297 298 298 298 298 297 296 295 295 294 294 293 292 290 288 285 283 281 280 279 279 279 277 276 275 274 273 274 272 269 262 251 241 235 230 225 221 219 216 213 210
286 287 288 289 291 292 292 293 294 294 294 295 295 295 295 296 296 296 296 296 295 295 295 295 295 295 295 295 294 294 294 293 293 293 293 293 294 296 296 297 297 297 298 298 299 299 299 299 298 298 297 296 295 294 293 292 291 290 288 286 283 282 280 278 277 276 275 273 272 271 271 271 270 268 265 257 246 237 233 228 224 221 219 216 212
Height
10944 10944 10943 10942 10940 10937 10934 10932 10930 10930 10929 10928 10926 10924 10922 10920 10918 10916 10915 10913 10910 10907 10905 10903 10901 10899 10896 10892 10889 10887 10885 10882 10880 10878 10875 10872 10868 10864 10861 10860 10859 10856 10854 10851 10849 10847 10845 10843 10840 10837 10835 10832 10829 10826 10822 10819 10815 10812 10809 10806 10803 10799 10794 10789 10783 10778 10776 10774 10771 10768 10767 10766 10765 10763 10761 10760 10759 10757 10755 10753 10752 10751 10750 10751 10753
10941 10940 10939 10937 10934 10931 10928 10927 10927 10926 10924 10924 10922 10920 10917 10916 10914 10912 10909 10907 10904 10902 10900 10898 10895 10893 10891 10888 10885 10882 10880 10877 10875 10873 10870 10867 10863 10859 10856 10854 10852 10851 10848 10846 10843 10841 10839 10837 10834 10831 10829 10826 10823 10820 10816 10813 10809 10806 10803 10799 10796 10793 10789 10784 10778 10772 10767 10765 10763 10760 10756 10755 10754 10753 10753 10751 10750 10749 10747 10745 10744 10742 10741 10741 10743
10937 10937 10935 10931 10927 10924 10924 10925 10924 10921 10919 10918 10917 10915 10913 10910 10908 10906 10903 10901 10898 10896 10894 10892 10890 10887 10885 10883 10880 10877 10875 10872 10870 10868 10865 10862 10858 10853 10850 10848 10846 10844 10843 10840 10838 10836 10833 10831 10828 10825 10822 10819 10817 10814 10810 10807 10803 10799 10795 10792 10788 10785 10782 10778 10773 10767 10760 10756 10755 10753 10749 10744 10742 10742 10742 10742 10741 10739 10738 10736 10735 10733 10732 10732 10732
10933 10931 10928 10924 10920 10919 10919 10920 10920 10918 10914 10912 10911 10910 10909 10905 10902 10900 10898 10896 10893 10890 10888 10886 10884 10882 10879 10877 10874 10872 10870 10867 10865 10863 10860 10857 10852 10847 10845 10843 10840 10838 10836 10834 10832 10829 10827 10824 10821 10818 10815 10812 10809 10807 10804 10800 10796 10792 10788 10784 10781 10777 10774 10771 10766 10760 10755 10748 10745 10744 10741 10736 10731 10730 10731 10732 10731 10729 10728 10727 10725 10723 10722 10722 10723
10927 10925 10921 10917 10915 10914 10913 10914 10914 10912 10908 10906 10906 10907 10904 10900 10897 10895 10893 10892 10889 10886 10884 10881 10879 10877 10874 10872 10870 10868 10866 10863 10861 10858 10855 10852 10846 10842 10840 10837 10834 10832 10830 10828 10826 10823 10820 10817 10814 10810 10807 10805 10802 10800 10797 10793 10789 10784 10781 10776 10772 10769 10765 10762 10758 10753 10749 10743 10737 10733 10732 10728 10723 10719 10719 10721 10721 10719 10718 10717 10715 10713 10712 10712 10713
10921 10918 10914 10911 10910 10909 10908 10908 10907 10903 10901 10901 10901 10902 10900 10895 10893 10891 10889 10888 10885 10882 10879 10877 10874 10872 10870 10868 10865 10863 10860 10858 10856 10853 10850 10846 10841 10838 10835 10831 10829 10826 10824 10821 10819 10816 10814 10810 10807 10804 10801 10798 10796 10793 10789 10785 10781 10776 10773 10768 10764 10760 10756 10752 10749 10745 10741 10737 10731 10726 10722 10718 10715 10712 10710 10709 10709 10708 10707 10707 10705 10703 10702 10702 10702
10915 10912 10909 10906 10905 10904 10904 10903 10900 10895 10894 10895 10894 10895 10894 10891 10888 10886 10883 10882 10880 10876 10873 10871 10869 10866 10864 10862 10859 10857 10854 10852 10850 10848 10844 10840 10836 10833 10829 10826 10823 10820 10818 10815 10812 10809 10806 10803 10800 10797 10794 10791 10788 10785 10781 10776 10772 10768 10764 10760 10755 10751 10746 10743 10740 10736 10732 10728 10723 10718 10713 10708 10705 10703 10701 10699 10697 10696 10696 10696 10694 10692 10692 10692 10691
10909 10906 10904 10902 10900 10900 10899 10899 10896 10891 10888 10887 10887 10887 10887 10885 10883 10880 10878 10876 10874 10871 10868 10865 10862 10859 10856 10854 10851 10849 10847 10845 10843 10841 10837 10833 10830 10826 10823 10820 10817 10814 10811 10809 10806 10802 10799 10795 10792 10790 10787 10783 10779 10775 10771 10767 10763 10758 10754 10751 10747 10741 10737 10734 10729 10726 10722 10718 10714 10709 10705 10700 10696 10694 10692 10689 10687 10685 10684 10684 10683 10681 10680 10680 10680
10903 10901 10900 10898 10897 10896 10895 10894 10892 10890 10885 10881 10880 10881 10881 10879 10877 10874 10872 10869 10867 10864 10861 10858 10855 10852 10849 10847 10844 10842 10840 10838 10836 10833 10829 10826 10823 10819 10817 10814 10811 10808 10805 10802 10799 10796 10793 10789 10785 10782 10779 10775 10771 10766 10762 10758 10753 10748 10743 10740 10737 10732 10728 10724 10720 10716 10711 10707 10703 10699 10695 10692 10688 10685 10682 10678 10677 10675 10673 10672 10672 10670 10669 10668 10667
10898 10896 10895 10894 10892 10892 10891 10888 10887 10886 10882 10877 10875 10874 10873 10872 10870 10869 10866 10863 10860 10857 10854 10852 10849 10845 10842 10839 10837 10834 10832 10830 10828 10826 10823 10820 10817 10814 10810 10807 10804 10801 10798 10794 10791 10788 10785 10781 10777 10774 10770 10766 10761 10756 10752 10749 10743 10737 10732 10729 10726 10722 10718 10714 10710 10706 10702 10698 10693 10689 10686 10683 10679 10676 10672 10668 10666 10665 10662 10660 10660 10658 10657 10657 10655
10892 10891 10890 10889 10888 10886 10885 10883 10881 10880 10878 10874 10870 10867 10865 10864 10863 10862 10860 10856 10853 10850 10847 10845 10842 10838 10835 10832 10829 10827 10825 10823 10822 10819 10817 10814 10811 10808 10804 10800 10796 10792 10789 10786 10782 10779 10776 10772 10768 10765 10761 10756 10751 10747 10743 10739 10734 10728 10723 10719 10715 10712 10708 10704 10700 10697 10694 10690 10684 10680 10677 10674 10670 10666 10662 10659 10655 10652 10649 10648 10648 10647 10645 10645 10644
10886 10885 10884 10883 10882 10880 10878 10877 10876 10874 10873 10869 10865 10861 10860 10858 10856 10855 10853 10850 10847 10844 10840 10838 10835 10832 10829 10826 10823 10821 10819 10817 10816 10813 10810 10807 10804 10801 10797 10792 10788 10784 10780 10777 10774 10771 10767 10763 10759 10755 10751 10747 10742 10738 10734 10730 10724 10718 10714 10710 10705 10702 10698 10694 10690 10686 10683 10680 10676 10671 10667 10665 10661 10656 10652 10649 10645 10641 10637 10635 10635 10635 10633 10633 10634
10880 10878 10877 10876 10875 10873 10872 10870 10869 10868 10867 10864 10859 10857 10855 10853 10851 10849 10846 10844 10842 10839 10835 10832 10829 10825 10822 10819 10816 10814 10812 10810 10808 10805 10802 10799 10796 10792 10788 10784 10779 10775 10772 10768 10765 10762 10758 10755 10751 10746 10743 10739 10734 10729 10725 10721 10716 10710 10705 10701 10696 10692 10688 10683 10680 10677 10673 10670 10666 10661 10656 10654 10651 10646 10641 10638 10634 10630 10627 10623 10622 10623 10621 10622 10623
10873 10872 10871 10870 10868 10866 10864 10864 10863 10862 10860 10858 10855 10852 10851 10848 10845 10843 10841 10838 10835 10832 10829 10826 10822 10817 10815 10812 10809 10806 10804 10802 10800 10797 10793 10790 10788 10784 10779 10775 10771 10767 10764 10760 10757 10753 10750 10746 10742 10738 10734 10729 10726 10721 10716 10712 10708 10702 10697 10692 10688 10683 10678 10674 10671 10666 10662 10659 10656 10651 10646 10642 10639 10635 10630 10627 10623 10619 10616 10613 10610 10610 10611 10611 10612
10865 10865 10864 10863 10860 10858 10857 10856 10856 10855 10853 10851 10848 10846 10844 10841 10839 10837 10835 10833 10831 10827 10823 10821 10816 10810 10807 10805 10801 10797 10795 10793 10791 10788 10785 10783 10780 10776 10772 10768 10764 10760 10756 10753 10749 10745 10742 10738 10734 10730 10724 10719 10715 10711 10706 10702 10698 10693 10688 10682 10678 10674 10669 10665 10661 10656 10651 10649 10646 10641 10636 10631 10628 10624 10618 10614 10611 10608 10605 10602 10599 10599 10600 10601 10601
10856 10856 10856 10855 10853 10851 10849 10848 10848 10847 10845 10843 10840 10838 10836 10834 10831 10829 10828 10827 10826 10822 10818 10814 10810 10805 10800 10797 10793 10789 10786 10784 10782 10779 10777 10774 10772 10768 10765 10761 10757 10753 10749 10745 10740 10737 10734 10729 10724 10720 10715 10709 10704 10700 10696 10693 10689 10683 10678 10672 10668 10664 10659 10655 10651 10646 10641 10639 10635 10630 10625 10620 10616 10612 10607 10602 10600 10598 10595 10591 10588 10589 10590 10590 10591
10846 10846 10846 10846 10845 10843 10841 10841 10841 10840 10838 10834 10832 10831 10829 10826 10823 10821 10820 10819 10818 10816 10813 10808 10803 10797 10793 10790 10785 10781 10778 10775 10774 10771 10768 10765 10762 10759 10757 10754 10750 10745 10741 10736 10731 10728 10725 10721 10715 10711 10706 10701 10696 10691 10686 10683 10679 10674 10669 10664 10659 10654 10649 10644 10641 10635 10628 10625 10621 10617 10613 10610 10606 10601 10596 10592 10589 10587 10584 10580 10578 10578 10580 10580 10581
10837 10836 10837 10838 10837 10835 10834 10833 10834 10833 10830 10827 10825 10823 10821 10819 10816 10812 10811 10810 10809 10808 10806 10801 10795 10790 10786 10782 10778 10774 10769 10767 10765 10762 10758 10756 10753 10750 10748 10745 10742 10737 10733 10728 10723 10719 10716 10712 10706 10701 10697 10691 10686 10681 10677 10673 10668 10664 10660 10656 10651 10645 10639 10635 10631 10625 10618 10613 10608 10604 10600 10597 10594 10590 10585 10581 10578 10576 10574 10571 10568 10568 10570 10571 10572
10829 10829 10829 10830 10829 10827 10826 10826 10826 10825 10822 10819 10817 10815 10813 10811 10808 10804 10802 10801 10799 10797 10795 10791 10786 10781 10778 10774 10770 10766 10762 10759 10757 10753 10749 10746 10744 10742 10740 10737 10733 10729 10725 10720 10716 10711 10707 10703 10697 10691 10687 10682 10676 10671 10666 10662 10657 10653 10649 10646 10642 10635 10629 10625 10620 10614 10609 10603 10598 10593 10589 10585 10582 10578 10574 10570 10568 10566 10564 10562 10559 10559 10561 10563 10564
10823 10823 10823 10822 10821 10819 10818 10817 10817 10816 10814 10811 10809 10807 10805 10803 10800 10796 10793 10791 10789 10786 10783 10780 10776 10772 10769 10766 10762 10758 10755 10752 10748 10744 10741 10738 10735 10733 10731 10727 10723 10719 10715 10711 10707 10702 10697 10693 10687 10681 10675 10671 10666 10661 10656 10651 10646 10642 10638 10635 10631 10624 10618 10614 10609 10603 10597 10592 10587 10583 10578 10575 10572 10569 10564 10561 10558 10556 10554 10553 10552 10552 10553 10554 10556
10817 10817 10816 10815 10814 10811 10810 10809 10809 10808 10807 10804 10801 10799 10797 10795 10792 10789 10786 10783 10780 10777 10774 10771 10768 10765 10763 10760 10756 10752 10749 10746 10741 10736 10733 10729 10726 10723 10721 10718 10714 10710 10706 10701 10696 10692 10687 10682 10678 10672 10666 10661 10657 10651 10647 10642 10637 10632 10628 10624 10619 10613 10607 10602 10597 10592 10587 10582 10577 10572 10567 10564 10562 10559 10556 10552 10549 10547 10545 10544 10544 10545 10546 10546 10547
10810 10810 10810 10808 10807 10805 10803 10802 10801 10800 10799 10797 10794 10791 10789 10787 10784 10782 10779 10775 10772 10769 10767 10765 10762 10758 10756 10753 10750 10747 10743 10739 10734 10729 10724 10720 10716 10713 10711 10708 10703 10699 10695 10690 10684 10680 10676 10671 10667 10662 10657 10652 10647 10642 10637 10632 10627 10623 10618 10613 10608 10602 10596 10591 10585 10580 10576 10571 10567 10562 10557 10553 10552 10550 10547 10544 10541 10539 10537 10536 10536 10538 10539 10539 10539
10803 10803 10803 10801 10800 10799 10796 10794 10793 10792 10791 10789 10787 10784 10782 10779 10776 10774 10771 10767 10765 10762 10760 10758 10755 10751 10749 10746 10742 10740 10736 10731 10726 10721 10716 10712 10708 10704 10700 10697 10692 10688 10684 10679 10673 10669 10665 10661 10656 10651 10647 10643 10638 10633 10628 10623 10618 10613 10608 10602 10597 10591 10585 10580 10574 10569 10565 10560 10556 10552 10547 10544 10542 10540 10538 10536 10534 10532 10530 10528 10529 10531 10532 10533 10533
10796 10796 10795 10794 10794 10792 10790 10786 10785 10784 10782 10781 10779 10776 10775 10772 10768 10765 10762 10759 10757 10754 10752 10749 10746 10743 10740 10738 10735 10732 10729 10724 10719 10714 10710 10706 10702 10697 10692 10688 10683 10679 10675 10670 10664 10659 10655 10650 10646 10641 10636 10632 10628 10623 10618 10613 10608 10602 10597 10591 10586 10581 10575 10569 10564 10559 10555 10550 10546 10542 10539 10536 10533 10532 10530 10528 10526 10525 10523 10521 10522 10524 10525 10526 10527
10789 10788 10787 10786 10785 10784 10782 10779 10777 10776 10774 10773 10771 10768 10767 10765 10761 10756 10753 10751 10749 10745 10742 10740 10736 10733 10732 10730 10727 10724 10719 10715 10712 10708 10703 10698 10694 10689 10685 10679 10674 10670 10666 10662 10656 10650 10645 10640 10636 10631 10626 10622 10617 10613 10607 10601 10597 10592 10586 10581 10576 10570 10564 10559 10554 10549 10544 10540 10537 10533 10530 10528 10526 10524 10522 10521 10519 10518 10516 10515 10516 10518 10519 10519 10521
10781 10779 10778 10777 10776 10775 10773 10770 10769 10767 10765 10764 10762 10760 10759 10756 10752 10749 10746 10743 10740 10736 10733 10730 10727 10724 10722 10721 10719 10714 10710 10707 10703 10699 10694 10688 10684 10680 10676 10671 10666 10661 10657 10652 10647 10641 10635 10630 10625 10621 10616 10612 10607 10602 10596 10590 10585 10581 10576 10570 10565 10559 10554 10549 10544 10539 10535 10531 10528 10525 10522 10520 10518 10517 10515 10514 10513 10512 10510 10509 10510 10511 10513 10514 10516
10772 10771 10769 10768 10767 10765 10764 10762 10760 10758 10757 10755 10753 10753 10752 10747 10744 10741 10738 10734 10730 10726 10723 10721 10719 10716 10712 10710 10707 10704 10701 10697 10694 10689 10685 10679 10673 10669 10665 10661 10656 10651 10647 10642 10637 10632 10626 10620 10615 10611 10607 10602 10597 10592 10586 10580 10575 10570 10564 10559 10553 10548 10543 10538 10533 10529 10526 10522 10519 10516 10514 10512 10511 10510 10508 10507 10506 10505 10504 10504 10504 10506 10507 10509 10512
10763 10762 10761 10760 10758 10757 10755 10753 10751 10750 10748 10746 10744 10745 10744 10741 10738 10735 10730 10725 10722 10719 10714 10711 10709 10706 10703 10700 10697 10693 10691 10687 10683 10679 10676 10671 10665 10659 10654 10650 10646 10641 10636 10631 10627 10622 10616 10610 10605 10601 10596 10591 10586 10582 10576 10570 10565 10559 10553 10548 10542 10537 10532 10528 10524 10520 10517 10513 10511 10508 10506 10505 10504 10502 10501 10500 10500 10499 10498 10498 10499 10501 10502 10505 10507
10755 10754 10753 10751 10750 10748 10747 10745 10743 10741 10739 10737 10736 10735 10734 10733 10729 10725 10720 10716 10713 10711 10707 10703 10699 10696 10693 10690 10687 10683 10681 10677 10672 10668 10665 10661 10656 10651 10646 10641 10637 10632 10626 10620 10615 10610 10605 10600 10594 10590 10585 10581 10576 10572 10565 10559 10554 10548 10542 10537 10532 10527 10522 10518 10515 10511 10508 10506 10503 10501 10499 10498 10497 10496 10495 10494 10494 10493 10493 10493 10495 10496 10498 10500 10502
10746 10746 10744 10742 10740 10740 10738 10735 10733 10732 10731 10729 10728 10728 10729 10726 10719 10713 10711 10707 10703 10700 10697 10694 10690 10687 10684 10681 10677 10673 10671 10667 10663 10659 10654 10650 10645 10641 10636 10631 10627 10622 10616 10610 10603 10598 10594 10590 10584 10580 10575 10570 10566 10561 10555 10549 10543 10538 10532 10526 10522 10517 10514 10510 10506 10504 10501 10498 10496 10494 10492 10492 10491 10490 10489 10488 10488 10488 10488 10489 10490 10492 10493 10495 10498
10738 10737 10736 10733 10731 10731 10729 10726 10724 10723 10722 10720 10719 10720 10725 10724 10716 10708 10703 10698 10694 10690 10688 10684 10681 10678 10674 10670 10666 10663 10660 10657 10653 10649 10644 10639 10634 10630 10625 10620 10615 10610 10605 10599 10593 10588 10584 10579 10574 10569 10564 10559 10554 10550 10544 10539 10533 10528 10522 10517 10512 10508 10505 10502 10499 10496 10493 10491 10489 10487 10486 10485 10485 10484 10483 10483 10483 10483 10483 10484 10486 10488 10490 10491 10494
10729 10728 10726 10723 10722 10722 10720 10718 10716 10713 10712 10711 10709 10709 10712 10713 10708 10702 10696 10690 10685 10683 10680 10675 10671 10667 10663 10660 10656 10652 10649 10645 10641 10638 10633 10629 10624 10619 10614 10609 10604 10599 10594 10589 10583 10578 10573 10569 10564 10559 10553 10548 10543 10538 10533 10528 10523 10518 10513 10508 10504 10500 10497 10494 10491 10489 10486 10484 10482 10481 10480 10479 10479 10478 10478 10477 10478 10478 10479 10481 10483 10484 10486 10488 10491
10719 10719 10716 10714 10713 10712 10710 10708 10706 10703 10701 10700 10698 10698 10698 10698 10694 10691 10687 10681 10676 10672 10668 10664 10661 10657 10652 10649 10646 10642 10638 10634 10630 10626 10622 10617 10613 10608 10602 10597 10593 10588 10583 10579 10573 10568 10563 10558 10554 10549 10543 10538 10533 10527 10522 10517 10513 10508 10504 10499 10496 10493 10489 10486 10484 10482 10479 10478 10476 10475 10474 10474 10473 10473 10473 10473 10473 10474 10475 10477 10479 10481 10483 10485 10488
10709 10709 10707 10705 10703 10701 10699 10697 10695 10693 10690 10689 10687 10686 10687 10685 10682 10679 10675 10671 10666 10661 10656 10652 10649 10646 10642 10638 10635 10631 10627 10623 10619 10615 10611 10606 10601 10596 10590 10585 10582 10578 10573 10568 10564 10559 10554 10548 10543 10538 10533 10527 10522 10518 10512 10507 10503 10500 10496 10491 10488 10485 10482 10480 10477 10475 10473 10471 10470 10469 10469 10468 10468 10468 10468 10468 10469 10470 10471 10473 10475 10478 10480 10483 10485
10700 10699 10697 10695 10693 10690 10688 10687 10685 10682 10680 10678 10675 10674 10673 10671 10669 10666 10663 10658 10654 10650 10645 10640 10637 10634 10630 10626 10623 10620 10616 10612 10608 10604 10600 10594 10589 10584 10580 10575 10572 10568 10563 10558 10554 10549 10544 10539 10533 10527 10522 10517 10512 10508 10503 10499 10495 10491 10488 10484 10480 10478 10475 10473 10471 10469 10467 10466 10465 10464 10463 10463 10463 10463 10464 10464 10465 10466 10468 10470 10472 10475 10477 10480 10482
10689 10687 10686 10684 10682 10680 10678 10676 10673 10671 10668 10666 10663 10662 10660 10658 10655 10652 10649 10645 10641 10638 10634 10629 10625 10622 10618 10615 10612 10609 10605 10601 10597 10593 10588 10583 10578 10574 10570 10566 10562 10558 10554 10549 10544 10539 10534 10529 10523 10517 10512 10507 10503 10498 10494 10490 10487 10483 10480 10476 10473 10471 10469 10467 10465 10463 10462 10461 10460 10459 10458 10458 10458 10459 10459 10460 10461 10462 10464 10466 10469 10472 10474 10477 10479
10678 10676 10675 10674 10672 10670 10667 10664 10661 10659 10656 10654 10652 10650 10648 10645 10643 10640 10636 10632 10628 10625 10622 10618 10614 10611 10608 10604 10601 10598 10594 10590 10586 10582 10578 10573 10569 10564 10560 10556 10551 10548 10543 10538 10533 10528 10523 10518 10512 10507 10502 10498 10493 10489 10486 10482 10479 10476 10472 10469 10467 10465 10463 10461 10460 10458 10457 10456 10455 10455 10454 10453 10454 10454 10455 10456 10457 10458 10460 10463 10465 10468 10471 10474 10477
10667 10666 10665 10663 10661 10660 10657 10654 10651 10648 10645 10643 10641 10639 10636 10633 10630 10628 10625 10621 10618 10614 10611 10607 10604 10602 10597 10593 10589 10587 10583 10579 10576 10572 10568 10563 10559 10554 10550 10546 10541 10536 10532 10528 10522 10517 10512 10507 10501 10497 10493 10489 10485 10481 10478 10475 10472 10469 10466 10463 10461 10459 10458 10456 10455 10453 10452 10451 10451 10450 10449 10449 10449 10450 10451 10452 10453 10455 10457 10459 10462 10465 10468 10471 10474
10658 10656 10654 10652 10650 10649 10647 10644 10641 10637 10635 10632 10630 10628 10625 10622 10619 10616 10613 10610 10607 10604 10601 10597 10594 10591 10587 10582 10578 10575 10572 10569 10566 10562 10557 10553 10548 10543 10539 10535 10530 10526 10521 10517 10512 10507 10502 10497 10491 10487 10483 10480 10476 10473 10471 10468 10465 10463 10460 10458 10455 10454 10453 10451 10450 10448 10447 10446 10446 10445 10445 10445 10445 10446 10447 10448 10449 10451 10453 10456 10459 10462 10465 10468 10471
10648 10645 10643 10640 10638 10636 10635 10633 10630 10627 10624 10621 10618 10616 10613 10610 10607 10604 10602 10599 10595 10593 10590 10586 10583 10579 10575 10571 10567 10564 10561 10558 10555 10551 10546 10542 10537 10532 10528 10523 10519 10515 10511 10506 10502 10497 10492 10487 10482 10478 10474 10471 10468 10466 10463 10461 10459 10456 10454 10452 10450 10449 10447 10446 10445 10444 10443 10442 10441 10441 10440 10440 10441 10442 10443 10444 10445 10447 10450 10452 10455 10458 10462 10465 10468
10638 10635 10633 10630 10627 10624 10623 10622 10619 10616 10613 10610 10607 10604 10601 10598 10595 10592 10590 10587 10583 10580 10577 10574 10571 10567 10563 10560 10557 10553 10550 10547 10543 10539 10534 10530 10525 10521 10516 10512 10508 10505 10501 10496 10491 10487 10482 10478 10474 10470 10466 10463 10461 10459 10457 10454 10452 10450 10448 10446 10445 10443 10442 10441 10440 10439 10438 10437 10436 10436 10436 10436 10436 10437 10439 10440 10442 10443 10446 10448 10451 10455 10458 10461 10464
10627 10625 10623 10620 10617 10615 10613 10610 10608 10606 10603 10600 10597 10593 10590 10587 10584 10581 10579 10575 10572 10569 10566 10563 10560 10556 10552 10549 10545 10542 10538 10535 10531 10527 10522 10518 10514 10510 10505 10501 10498 10494 10491 10487 10483 10478 10474 10470 10467 10464 10460 10457 10455 10453 10451 10448 10446 10445 10443 10441 10440 10439 10438 10436 10435 10435 10434 10433 10432 10432 10432 10432 10432 10433 10434 10436 10437 10439 10442 10444 10447 10451 10454 10458 10461
10616 10614 10611 10609 10607 10604 10602 10600 10597 10595 10592 10589 10586 10583 10580 10577 10574 10571 10568 10565 10562 10558 10555 10552 10548 10545 10541 10538 10534 10530 10527 10523 10519 10515 10511 10506 10502 10498 10494 10491 10487 10484 10481 10478 10474 10470 10466 10464 10461 10458 10454 10451 10449 10447 10445 10443 10441 10440 10438 10437 10436 10434 10433 10432 10431 10431 10430 10429 10428 10428 10427 10427 10428 10429 10430 10431 10433 10435 10437 10440 10443 10447 10450 10454 10457
10605 10603 10601 10599 10597 10594 10591 10589 10586 10584 10581 10578 10575 10572 10569 10566 10563 10560 10557 10554 10551 10547 10544 10541 10538 10534 10530 10527 10523 10519 10516 10512 10508 10504 10499 10495 10491 10487 10484 10480 10478 10475 10472 10470 10466 10462 10459 10457 10455 10452 10448 10446 10444 10442 10440 10438 10437 10435 10434 10433 10431 10430 10429 10428 10427 10427 10426 10425 10424 10424 10423 10423 10423 10424 10425 10427 10429 10430 10433 10435 10438 10442 10446 10450 10453
10594 10592 10591 10589 10587 10584 10581 10578 10575 10573 10570 10568 10565 10561 10558 10555 10553 10549 10546 10543 10539 10536 10533 10530 10527 10523 10519 10516 10512 10508 10504 10500 10496 10492 10488 10484 10480 10477 10474 10471 10469 10466 10464 10462 10458 10455 10453 10451 10449 10446 10443 10440 10438 10436 10435 10433 10432 10431 10430 10428 10427 10426 10425 10424 10423 10423 10422 10421 10420 10419 10419 10419 10419 10420 10421 10422 10424 10426 10428 10431 10434 10437 10441 10445 10449
10584 10582 10580 10578 10576 10573 10571 10568 10565 10562 10560 10557 10554 10551 10547 10544 10541 10538 10534 10531 10528 10525 10522 10519 10515 10511 10507 10504 10500 10496 10492 10489 10485 10481 10477 10474 10470 10467 10464 10462 10460 10458 10456 10454 10451 10448 10446 10444 10442 10440 10437 10435 10433 10431 10429 10428 10427 10426 10425 10424 10423 10422 10421 10420 10419 10418 10418 10417 10416 10415 10415 10415 10415 10416 10417 10418 10420 10422 10424 10426 10429 10432 10436 10440 10444
10575 10572 10570 10568 10566 10563 10561 10558 10555 10552 10550 10546 10543 10540 10537 10533 10530 10527 10523 10519 10516 10513 10510 10506 10503 10499 10495 10492 10488 10485 10481 10478 10475 10471 10468 10464 10461 10458 10456 10454 10452 10450 10449 10447 10444 10442 10439 10438 10436 10433 10431 10429 10428 10426 10424 10423 10422 10421 10420 10419 10418 10417 10416 10416 10415 10414 10414 10413 10412 10411 10411 10411 10412 10412 10413 10414 10416 10417 10419 10422 10424 10427 10431 10435 10439
10566 10563 10561 10559 10556 10554 10551 10548 10545 10542 10539 10535 10532 10529 10526 10522 10519 10515 10512 10508 10504 10501 10497 10494 10491 10487 10484 10481 10477 10474 10471 10468 10465 10462 10459 10456 10453 10451 10448 10447 10445 10443 10442 10440 10438 10436 10434 10432 10430 10427 10426 10424 10423 10421 10420 10419 10417 10416 10415 10414 10413 10412 10412 10411 10411 10410 10410 10409 10408 10408 10408 10408 10408 10408 10409 10410 10411 10413 10415 10417 10420 10423 10426 10430 10434
10556 10554 10551 10548 10546 10543 10540 10537 10534 10531 10527 10524 10521 10518 10514 10511 10507 10503 10500 10496 10493 10489 10485 10482 10479 10475 10472 10470 10467 10464 10462 10459 10457 10454 10451 10448 10446 10444 10442 10440 10439 10437 10435 10433 10432 10430 10428 10426 10424 10422 10421 10419 10418 10417 10415 10414 10413 10412 10411 10410 10409 10408 10408 10407 10407 10406 10406 10405 10405 10404 10404 10404 10404 10405 10405 10406 10407 10409 10411 10413 10415 10418 10422 10426 10430
10545 10543 10540 10538 10535 10532 10529 10526 10522 10519 10516 10512 10509 10506 10502 10498 10495 10491 10488 10484 10481 10477 10473 10470 10467 10464 10462 10460 10457 10455 10453 10451 10449 10447 10444 10441 10439 10438 10436 10435 10433 10431 10429 10427 10425 10424 10422 10421 10419 10417 10416 10415 10413 10412 10411 10410 10409 10407 10406 10405 10405 10404 10404 10404 10403 10403 10402 10401 10401 10401 10401 10401 10401 10401 10402 10403 10404 10405 10406 10408 10411 10414 10417 10421 10425
10535 10532 10530 10527 10524 10520 10518 10514 10511 10508 10504 10501 10497 10494 10490 10486 10483 10480 10476 10472 10469 10466 10463 10460 10457 10455 10453 10451 10449 10447 10445 10443 10441 10440 10438 10436 10434 10432 10431 10429 10427 10425 10423 10421 10419 10418 10417 10415 10414 10412 10411 10410 10408 10407 10406 10405 10404 10403 10402 10401 10400 10400 10400 10400 10399 10399 10398 10397 10397 10397 10397 10398 10398 10399 10399 10400 10400 10401 10402 10404 10407 10409 10412 10416 10420